Location: Unspecified
(40.7945°N, 111.1337°W)
Time: 01:45:11
(UTC-06:00)

Resurs 1-4 Rocket - Pass Details

Date: 22 March 2019
Orbit: 799 x 815 km, 98.6° (Epoch: 24 April)

Event Time Altitude Azimuth Distance (km) Brightness Sun altitude
Rises 04:14:13 0° 2° (N) 3,332 5.8 -34.6°
Reaches altitude 10° 04:16:51 10° 351° (N) 2,394 4.8 -34.2°
Enters shadow 04:17:51 15° 343° (NNW) 2,076 4.4 -34.0°
